Torna al catalogo

STARLINK-37461

AttivoComunicazioniVLEO
NORAD 69173·PAYLOAD·🇺🇸 United States

Lanciato May 21, 2026 da Cape Canaveral Space Force Station

Loading…

Prossimi Passaggi (prossime 24 ore)

TLE

AggiornatoSource: CelesTrak SupGP

Epoca: Sep 14, 2026, 23:02 UTC

1 69173C 26111AB  26257.96020833  .00011888  00000+0  35134-3 0  2571
2 69173  53.1568  91.4582 0001315  86.0952 173.2706 15.34375185    14

Traccia STARLINK-37461 in tempo reale con AllMySat

Download on the App Store